Regional Weather Roundup
Issued by NWS

Home | Current Version | Previous Version | Graphics & Text | Print | Product List | Glossary On
Versions: 1 2 3 4 5 6 7 8 9 10 11 12 13 14 15 16 17 18 19 20 21 22 23 24 25 26 27 28 29 30 31 32 33 34 35 36 37 38 39 40 41 42 43 44 45 46 47 48 49 50
000
ASUS43 KLOT 250806
RWRIL

ILLINOIS REGIONAL WEATHER ROUNDUP
NATIONAL WEATHER SERVICE CHICAGO/ROMEOVILLE IL
200 AM CST SUN JAN 25 2015

NOTE: "FAIR" INDICATES FEW OR NO CLOUDS BELOW 12,000 FEET WITH NO
SIGNIFICANT WEATHER AND/OR OBSTRUCTIONS TO VISIBILITY.

* THESE STATIONS ARE NOT UNDER NWS QUALITY CONTROL. THEY ALSO MAY NOT
  REPORT WEATHER SUCH AS PRECIPITATION OR FOG.

ILZ001-002-007-009-015-016-024-250900-
NORTHWEST ILLINOIS

CITY           SKY/WX    TMP DP  RH WIND       PRES   REMARKS
MOLINE         CLOUDY    33  31  92 E6        29.59R WCI  28
STERLING*      CLOUDY    34  30  86 E14       29.62S WCI  24
SAVANNA*       CLOUDY    34  32  91 NE7       29.62S WCI  28
$$

ILZ003-004-008-010-011-017-018-250900-
NORTH CENTRAL ILLINOIS

CITY           SKY/WX    TMP DP  RH WIND       PRES   REMARKS
ROCKFORD       CLOUDY    33  29  85 E5        29.67R WCI  29
FREEPORT*      CLOUDY    32  30  94 E8        29.67R WCI  24
ROCHELLE*      CLOUDY    32  31  96 E10       29.65R WCI  24
DE KALB*       CLOUDY    31  29  94 E9        29.66R FOG     WCI  23
PERU*          MOCLDY    34  33  96 E8        29.63S WCI  28
$$

ILZ005-006-012>014-019>023-250900-
NORTHEAST ILLINOIS

CITY           SKY/WX    TMP DP  RH WIND       PRES   REMARKS
CHICAGO-OHARE  CLOUDY    32  29  88 NE6       29.67R WCI  26
CHICAGO-MIDWAY CLOUDY    34  31  88 NE7       29.68R WCI  28
AURORA         CLOUDY    33  29  85 E7        29.66R FOG     WCI  27
LANSING*       CLOUDY    33  32  96 CALM      29.68R
JOLIET*        CLOUDY    33  31  95 E3        29.66S FOG
WAUKEGAN       CLOUDY    33  31  92 N13       29.68R WCI  24
DUPAGE AIRPORT CLOUDY    32  29  88 NE7       29.66R WCI  26
KANKAKEE*      MOCLDY    32  31  97 NE5       29.66R WCI  27
WHEELING       CLOUDY    32  29  88 CALM      29.69S FOG
MORRIS*        CLOUDY    33  33 100 E6        29.65R FOG     WCI  28
ROMEOVILLE*    CLOUDY    33  32  96 E5        29.66S WCI  28
NORTHERLY ISL    N/A     32  30  93 MISG        N/A
$$

LMZ740>746-250900-
SOUTHERN LAKE MICHIGAN

STATION/POSITION SKY/WX   TEMP    WIND        PRES    VSBY  WAVE
                          AIR SEA DIR/SP/G                  HT/PER
                          (F)     (DEG/KT/KT) (MB)    (MI)  (FT/S)
WAUKEGAN HARBOR            32     360/  1/  8   N/A
HARRISON CRIB              32      20/  5/  5   N/A
BURNHAM HARBOR             32      20/  5/  7   N/A
CALUMET HARBOR             33      10/  4/  6   N/A
MICHIGAN CITY              34      20/  2/  2   N/A
$$

ILZ025>027-034>036-040-047-049-050-058-095>099-250900-
WEST-CENTRAL ILLINOIS

CITY           SKY/WX    TMP DP  RH WIND       PRES   REMARKS
QUINCY         CLOUDY    42  32  67 SW9       29.59F
GALESBURG*     CLOUDY    36  32  87 CALM      29.59R
MACOMB*        CLOUDY    38  34  82 CALM      29.60S
JACKSONVILLE*  CLOUDY    46  34  63 S7        29.60F
PITTSFIELD*    CLOUDY    46  34  62 SW7       29.61S
$$

ILZ028>032-037-038-041>044-048-051>054-059>061-250900-
CENTRAL ILLINOIS

CITY           SKY/WX    TMP DP  RH WIND       PRES   REMARKS
PONTIAC        MOCLDY    34  33  96 SE6       29.63F WCI  29
BLOOMINGTON    MOCLDY    35  33  92 S6        29.62F WCI  30
DECATUR        CLOUDY    38  32  79 S6        29.64S WCI  33
PEORIA         CLOUDY    39  32  76 CALM      29.60F
LACON*         CLOUDY    33  31  90 CALM      29.60F
LINCOLN*       CLOUDY    36  32  88 S3        29.63R
SPRINGFIELD    CLOUDY    43  32  65 SW6       29.62F
TAYLORVILLE    CLOUDY    37  32  81 S7        29.64S WCI  32
$$

ILZ033-039-045-046-055>057-062-063-250900-
EAST-CENTRAL ILLINOIS

CITY           SKY/WX    TMP DP  RH WIND       PRES   REMARKS
CHAMPAIGN      MOCLDY    33  31  92 S6        29.64F WCI  28
DANVILLE*      CLOUDY    34  32  92 SE3       29.64S
RANTOUL*       MOCLDY    33  32  96 SE5       29.64F FOG     WCI  28
MATTOON        MOCLDY    38  30  73 S7        29.65S WCI  33
PARIS*         CLOUDY    36  33  89 S7        29.67S WCI  30
$$

ILZ079-100>102-250900-
SOUTHWEST ILLINOIS

CITY           SKY/WX    TMP DP  RH WIND       PRES   REMARKS
ALTON          CLOUDY    43  30  60 S10       29.65S
BELLEVILLE     CLOUDY    42  33  68 S6        29.65F
CAHOKIA*       CLOUDY    49  33  54 S6        29.65F
SPARTA*        CLOUDY    45  32  60 S7        29.70S
$$

ILZ064>066-069>071-074>076-080>082-084>086-088>090-092>094-250900-
SOUTH-CENTRAL ILLINOIS

CITY           SKY/WX    TMP DP  RH WIND       PRES   REMARKS
CARBONDALE     CLOUDY    46  31  55 SW10      29.72F
CAIRO*         CLOUDY    45  33  63 S7        29.77F
EFFINGHAM*     MOCLDY    41  30  63 S5        29.68F
MARION         CLOUDY    45  34  65 S13       29.74S
MT. VERNON     CLOUDY    39  30  70 S7        29.71S WCI  34
CENTRALIA*     CLOUDY    43  32  65 S12       29.68F
SALEM*         CLOUDY    44  33  66 S9        29.69S
METROPOLIS*    MOCLDY    44  33  66 SW6       29.78S
$$

ILZ067-068-072-073-078-083-087-091-250900-
SOUTHEAST ILLINOIS

CITY           SKY/WX    TMP DP  RH WIND       PRES   REMARKS
LAWRENCEVILLE  CLOUDY    37  32  82 S8        29.72F WCI  31
FLORA*         CLOUDY    37  32  84 S8        29.69F WCI  30
FAIRFIELD*     MOCLDY    38  33  80 S5        29.70F WCI  35
HARRISBURG*    CLOUDY    42  33  69 S5        29.76S
ROBINSON*      CLOUDY    38  32  78 S9        29.71S WCI  32
CARMI*         CLOUDY    45  36  70 S9        29.73F
$$

ABBREVIATIONS USED IN REMARKS
   TC - TEMPERATURE IN CELSIUS
  WCI - WIND CHILL INDEX
   HX - HEAT INDEX
  VSB - VISIBILITY
$$



USA.gov is the U.S. government's official web portal to all federal, state and local government web resources and services.